Weather reports worldwide

Advertisment
Castellon, Spain (8286): temperature & dewpoint: 14.10.2017 09:00:00 - 20.10.2017 09:00:00 (CEST)Castellon, Spain (8286): wind speed: 14.10.2017 09:00:00 - 20.10.2017 09:00:00 (CEST)Castellon, Spain (8286): wind direction: 14.10.2017 09:00:00 - 20.10.2017 09:00:00 (CEST)Castellon, Spain (8286): reduced air pressure: 14.10.2017 09:00:00 - 20.10.2017 09:00:00 (CEST)Castellon, Spain (8286): visibility: 14.10.2017 09:00:00 - 20.10.2017 09:00:00 (CEST)Castellon, Spain (8286): precipitation: 14.10.2017 09:00:00 - 20.10.2017 09:00:00 (CEST)
Date & Time tt [°C] td [°C] ff [km/h] ff [kn] dd ppp [hPa] vv [km] rr [mm]
20.10.2017 09:00:00 - - - - - - - -
20.10.2017 08:00:00 17,1 9,0 8 4 NNW 1015,3 40 -
20.10.2017 07:00:00 17,2 9,4 9 5 NW 1014,8 20 0,0
20.10.2017 06:00:00 17,5 10,6 9 5 WNW 1014,5 20 0,0
20.10.2017 05:00:00 17,8 9,4 9 5 WNW 1014,2 20 -
20.10.2017 04:00:00 17,7 9,8 9 5 WNW 1013,9 20 0,0
20.10.2017 03:00:00 17,2 11,7 4 2 WNW 1013,6 20 0,0
20.10.2017 02:00:00 17,1 12,8 8 4 WNW 1013,1 20 -
20.10.2017 01:00:00 17,1 13,8 5 3 WNW 1012,7 20 0,0
20.10.2017 00:00:00 17,1 13,6 2 1 NW 1012,3 20 0,0
19.10.2017 23:00:00 17,8 12,0 2 1 NNE 1011,7 20 -
19.10.2017 22:00:00 18,0 12,9 2 1 SSW 1011,6 20 0,0
19.10.2017 21:00:00 18,4 13,5 4 2 NE 1011,5 19 0,0
19.10.2017 20:00:00 18,7 12,4 4 2 S 1011,0 20 -
19.10.2017 19:00:00 19,6 11,6 5 3 S 1010,3 20 0,0
19.10.2017 18:00:00 20,2 11,1 5 3 SE 1009,5 20 0,0
19.10.2017 17:00:00 21,1 10,3 5 3 NE 1009,4 20 -
19.10.2017 16:00:00 21,4 9,3 11 6 ESE 1009,1 20 0,0
19.10.2017 15:00:00 22,0 8,5 13 7 ESE 1009,0 20 0,0
19.10.2017 14:00:00 22,6 7,6 8 4 W 1009,2 40 -
19.10.2017 13:00:00 20,6 8,2 5 3 NW 1010,1 20 0,0
19.10.2017 12:00:00 19,0 8,3 13 7 WNW 1010,6 20 0,0
19.10.2017 11:00:00 17,3 8,4 9 5 W 1010,3 40 -
19.10.2017 10:00:00 16,0 8,5 9 5 WNW 1010,3 20 0,0
19.10.2017 09:00:00 15,7 8,2 11 6 WNW 1010,1 20 0,0
19.10.2017 08:00:00 15,5 8,9 11 6 WNW 1009,5 40 -
19.10.2017 07:00:00 15,6 9,7 13 7 WNW 1009,3 20 0,0
19.10.2017 06:00:00 15,1 10,3 9 5 WNW 1009,3 20 0,0
19.10.2017 05:00:00 15,2 10,4 11 6 WNW 1009,6 20 -
19.10.2017 04:00:00 15,9 9,8 11 6 WNW 1010,0 20 0,0
19.10.2017 03:00:00 16,6 9,8 13 7 WSW 1010,1 20 0,0
19.10.2017 02:00:00 16,8 9,7 15 8 W 1010,3 14 -
19.10.2017 01:00:00 16,5 11,2 9 5 W 1010,2 20 0,0
19.10.2017 00:00:00 16,8 15,0 8 4 SSW 1010,8 17 0,0
18.10.2017 23:00:00 17,1 15,4 5 3 SW 1011,1 20 -
18.10.2017 22:00:00 17,3 15,8 5 3 WSW 1010,5 19 0,0
18.10.2017 21:00:00 17,3 16,0 5 3 W 1010,1 18 0,0
18.10.2017 20:00:00 17,5 15,8 5 3 SSW 1009,6 18 -
18.10.2017 19:00:00 17,6 15,8 5 3 WSW 1009,3 20 0,0
18.10.2017 18:00:00 17,9 16,6 8 4 S 1009,3 20 0,0
18.10.2017 17:00:00 17,5 16,0 2 1 ESE 1009,8 14 -
18.10.2017 16:00:00 19,0 15,9 8 4 WSW 1011,5 - 2,0
18.10.2017 15:00:00 21,9 16,6 21 11 W 1010,8 10 0,8
18.10.2017 14:00:00 24,9 19,3 11 6 S 1011,0 15 -
18.10.2017 13:00:00 23,3 19,5 9 5 S 1012,2 1,4 0,0
18.10.2017 12:00:00 - - - - - - - -
18.10.2017 11:00:00 22,0 19,7 8 4 SSE 1013,5 12 -
18.10.2017 10:00:00 20,7 18,6 2 1 ESE 1013,9 18 0,0
18.10.2017 09:00:00 20,1 17,9 4 2 WNW 1014,1 13 0,0
18.10.2017 08:00:00 20,2 18,1 2 1 E 1014,2 15 -
18.10.2017 07:00:00 20,3 18,1 4 2 NNW 1014,8 20 0,0
18.10.2017 06:00:00 19,7 16,9 4 2 NW 1015,2 17 0,0
18.10.2017 05:00:00 19,7 17,1 4 2 NW 1016,1 18 -
18.10.2017 04:00:00 19,8 16,8 8 4 WNW 1017,0 16 0,0
18.10.2017 03:00:00 19,8 17,0 4 2 WNW 1017,4 18 0,0
18.10.2017 02:00:00 20,0 17,0 4 2 NW 1018,1 19 -
18.10.2017 01:00:00 20,4 17,8 4 2 NNW 1018,8 12 0,0
18.10.2017 00:00:00 20,6 17,8 2 1 SSE 1019,3 18 0,0
17.10.2017 23:00:00 20,8 17,8 5 3 NW 1019,6 19 -
17.10.2017 22:00:00 21,5 17,3 5 3 NNW 1019,7 20 0,0
17.10.2017 21:00:00 21,6 17,8 4 2 S 1019,4 20 0,0
17.10.2017 20:00:00 21,6 17,2 4 2 E 1019,4 20 -
17.10.2017 19:00:00 22,0 16,9 4 2 ESE 1019,6 20 0,0
17.10.2017 18:00:00 22,7 16,5 9 5 ESE 1019,7 20 0,0
17.10.2017 17:00:00 24,1 15,3 11 6 SE 1019,9 20 -
17.10.2017 16:00:00 24,8 15,7 13 7 SSE 1020,1 20 0,0
17.10.2017 15:00:00 24,2 15,9 15 8 ESE 1020,8 20 0,0
17.10.2017 14:00:00 25,1 15,7 11 6 SSE 1021,8 35 -
17.10.2017 13:00:00 25,0 14,5 9 5 SSE 1022,6 20 0,0
17.10.2017 12:00:00 23,0 13,5 5 3 SE 1023,1 20 0,0
17.10.2017 11:00:00 20,1 11,8 8 4 NW 1023,8 35 -
17.10.2017 10:00:00 17,9 11,5 11 6 WNW 1024,0 20 0,0
17.10.2017 09:00:00 17,4 11,9 8 4 WNW 1023,6 19 0,0
17.10.2017 08:00:00 17,2 13,3 13 7 WNW 1023,4 35 -
17.10.2017 07:00:00 16,4 12,7 15 8 WNW 1023,3 17 0,0
17.10.2017 06:00:00 16,7 14,0 11 6 WNW 1023,5 16 0,0
17.10.2017 05:00:00 16,6 13,7 8 4 WNW 1023,8 1,4 -
17.10.2017 04:00:00 16,5 14,0 9 5 WNW 1024,3 1,5 0,0
17.10.2017 03:00:00 16,8 14,3 5 3 WNW 1024,8 2,5 0,0
17.10.2017 02:00:00 17,2 14,5 8 4 WNW 1024,9 3,6 -
17.10.2017 01:00:00 17,3 14,4 8 4 WNW 1025,2 1,1 0,0
17.10.2017 00:00:00 17,9 14,6 2 1 NW 1025,7 6 0,0
16.10.2017 23:00:00 18,4 14,7 2 1 NW 1025,9 1,0 -
16.10.2017 22:00:00 19,4 14,9 2 1 NW 1025,6 7 0,0
16.10.2017 21:00:00 20,1 15,1 2 1 SSE 1025,4 2,9 0,0
16.10.2017 20:00:00 21,1 15,2 4 2 SE 1025,4 4,7 -
16.10.2017 19:00:00 22,3 15,4 8 4 SE 1025,0 4,0 0,0
16.10.2017 18:00:00 23,3 15,6 8 4 SSE 1024,7 7 0,0
16.10.2017 17:00:00 24,5 15,7 11 6 SE 1024,8 12 -
16.10.2017 16:00:00 24,9 16,1 9 5 ESE 1025,2 10 0,0
16.10.2017 15:00:00 25,3 15,6 13 7 ESE 1025,5 15 0,0
16.10.2017 14:00:00 26,1 16,4 11 6 SE 1026,1 30 -
16.10.2017 13:00:00 25,5 16,4 8 4 SE 1026,7 20 0,0
16.10.2017 12:00:00 24,0 16,3 8 4 S 1027,1 20 0,0
16.10.2017 11:00:00 21,7 16,2 4 2 N 1027,2 20 -
16.10.2017 10:00:00 20,3 15,7 9 5 WNW 1026,9 20 0,0
16.10.2017 09:00:00 18,4 16,0 8 4 WNW 1026,3 12 0,0
16.10.2017 08:00:00 18,0 16,0 8 4 WNW 1025,7 18 -
16.10.2017 07:00:00 18,0 16,0 5 3 WNW 1025,6 14 0,0
16.10.2017 06:00:00 18,1 16,3 9 5 WNW 1025,6 11 0,0
16.10.2017 05:00:00 18,5 16,5 5 3 WNW 1025,8 17 -
16.10.2017 04:00:00 18,5 16,7 4 2 WNW 1025,9 19 0,0
16.10.2017 03:00:00 18,7 16,8 4 2 WNW 1026,3 17 0,0
16.10.2017 02:00:00 19,0 17,0 8 4 WNW 1026,6 19 -
16.10.2017 01:00:00 19,2 17,0 4 2 WNW 1026,8 20 0,0
16.10.2017 00:00:00 19,6 17,0 5 3 WNW 1027,0 20 0,0
15.10.2017 23:00:00 20,3 17,5 4 2 NNW 1026,8 20 -
15.10.2017 22:00:00 20,7 17,5 0 0 N 1026,8 20 0,0
15.10.2017 21:00:00 21,4 17,6 2 1 SSE 1026,6 20 0,0
15.10.2017 20:00:00 21,8 17,8 4 2 ESE 1026,4 20 -
15.10.2017 19:00:00 22,8 17,5 8 4 SE 1025,8 20 0,0
15.10.2017 18:00:00 24,0 18,0 8 4 SE 1025,7 20 0,0
15.10.2017 17:00:00 24,9 17,9 11 6 SE 1025,5 20 -
15.10.2017 16:00:00 25,8 18,0 11 6 SSE 1025,7 20 0,0
15.10.2017 15:00:00 26,0 18,4 11 6 SE 1025,9 20 0,0
15.10.2017 14:00:00 26,3 18,2 13 7 SSE 1026,7 20 -
15.10.2017 13:00:00 25,3 18,0 11 6 SSE 1027,3 20 0,0
15.10.2017 12:00:00 24,0 18,0 8 4 S 1027,6 20 0,0
15.10.2017 11:00:00 21,2 17,8 5 3 W 1027,9 18 -
15.10.2017 10:00:00 18,8 17,1 11 6 WNW 1027,8 11 0,0
15.10.2017 09:00:00 17,6 16,5 8 4 WNW 1027,5 6 0,0
15.10.2017 08:00:00 17,6 16,5 8 4 WNW 1027,0 6 -
15.10.2017 07:00:00 17,9 16,8 8 4 WNW 1026,9 6 0,0
15.10.2017 06:00:00 18,2 16,9 8 4 WNW 1026,7 9 0,0
15.10.2017 05:00:00 18,6 17,1 5 3 WNW 1026,4 9 -
15.10.2017 04:00:00 18,6 16,9 5 3 WNW 1026,6 10 0,0
15.10.2017 03:00:00 18,7 16,8 4 2 WNW 1026,8 14 0,0
15.10.2017 02:00:00 18,9 16,9 2 1 NW 1026,9 20 -
15.10.2017 01:00:00 19,5 17,1 4 2 WNW 1027,2 20 0,0
15.10.2017 00:00:00 20,3 18,1 2 1 WNW 1027,0 20 0,0
14.10.2017 23:00:00 21,1 18,7 4 2 NNW 1026,9 20 -
14.10.2017 22:00:00 21,6 18,8 2 1 E 1026,6 20 0,0
14.10.2017 21:00:00 22,0 19,2 2 1 NE 1026,4 20 0,0
14.10.2017 20:00:00 22,4 19,2 5 3 ESE 1026,0 20 -
14.10.2017 19:00:00 23,0 19,0 8 4 ESE 1025,5 20 0,0
14.10.2017 18:00:00 23,8 18,4 11 6 ESE 1025,3 20 0,0
14.10.2017 17:00:00 24,7 18,6 11 6 ESE 1025,2 20 -
14.10.2017 16:00:00 25,1 18,8 11 6 ESE 1025,2 20 0,0
14.10.2017 15:00:00 25,9 19,1 13 7 ESE 1025,2 20 0,0
14.10.2017 14:00:00 26,0 18,2 9 5 E 1025,7 20 -
14.10.2017 13:00:00 25,2 18,2 9 5 ESE 1026,4 20 0,0
14.10.2017 12:00:00 24,1 17,1 8 4 E 1026,6 20 0,0
14.10.2017 11:00:00 22,6 17,9 4 2 N 1026,5 20 -
14.10.2017 10:00:00 21,2 18,2 5 3 WNW 1026,3 13 0,0
14.10.2017 09:00:00 20,1 17,3 8 4 WNW 1025,8 12 0,0

tt = temperature
td = dewpoint
ff = wind speed
dd = wind direction
ppp = reduced air pressure
vv = visibility
rr = precipitation

Next stations